Home   Weather   Chilliwack   Past weeks

Flag for Canada Past Weather in Chilliwack, British Columbia, Canada — Yesterday and Last 2 Weeks

Now
74 °F

Mild.


Feels Like: 77 °F
Forecast: 54 / 76 °F
Wind: 9 mph from Southwest

Location: Agassiz

Current Time: Jul 27, 2017 at 5:59:34 pm

Latest Report: Jul 27, 2017 at 5:00 pm


Visibility: N/A

Pressure: 30.09 "Hg

Humidity: 48%

Dew Point: 53 °F

Location of ChilliwackLocation

Past Weather in Chilliwack — Graph

°F

Chilliwack Temperature Yesterday

Maximum temperature yesterday: 82 °F (at 4:00 pm)
Minimum temperature yesterday: 55 °F (at 6:00 am)
Average temperature yesterday: 67 °F

High & Low Weather Summary for the Past Weeks

 TemperatureHumidityPressure
High84 °F (Jul 25, 5:00 pm)98% (Jul 14, 4:00 am)30.27 "Hg (Jul 14, 4:00 am)
Low50 °F (Jul 19, 6:00 am)27% (Jul 18, 8:00 pm)29.92 "Hg (Jul 24, 6:00 pm)
Average66 °F68%30.07 "Hg
* Reported Jul 12 4:00 pm — Jul 27 4:00 pm, Chilliwack. Weather by CustomWeather, © 2017

Note: Actual official high and low records may vary slightly from our data, if they occured in-between our weather recording intervals... More about our weather records

Advertising

Chilliwack Weather History for the Previous 24 Hours

Scroll right to see more
 ConditionsComfort  
Time TempWeatherWind HumidityBarometerVisibility
4:00 pm
Thu, Jul 27
74 °FMild.9 mph51%30.10 "HgN/A
3:00 pm74 °FMild.10 mph48%30.10 "HgN/A
2:00 pm75 °FMild.7 mph53%30.11 "HgN/A
1:00 pm72 °FMild.8 mph58%30.11 "HgN/A
12:00 pm71 °FMild.7 mph60%30.11 "HgN/A
11:00 am70 °FMild.7 mph63%30.11 "HgN/A
10:00 am67 °FMild.6 mph64%30.11 "HgN/A
9:00 am64 °FMild.2 mph72%30.11 "HgN/A
8:00 am62 °FCool.2 mph79%30.09 "HgN/A
7:00 am58 °FCool.2 mph86%30.08 "HgN/A
6:00 am57 °FCool.1 mph93%30.06 "HgN/A
5:00 am57 °FCool.1 mph84%30.04 "HgN/A
4:00 am59 °FCool.1 mph90%30.03 "HgN/A
3:00 am59 °FCool.No wind90%30.02 "HgN/A
2:00 am61 °FCool.1 mph92%30.01 "HgN/A
1:00 am60 °FCool.1 mph92%30.01 "HgN/A
12:00 am63 °FMild.1 mph85%30.00 "HgN/A
11:00 pm
Wed, Jul 26
65 °FMild.No wind82%30.00 "HgN/A
10:00 pm67 °FMild.No wind76%29.99 "HgN/A
9:00 pm66 °FMild.2 mph79%29.98 "HgN/A
8:00 pm71 °FMild.2 mph68%29.98 "HgN/A
7:00 pm76 °FMild.3 mph50%30.00 "HgN/A
6:00 pm77 °FWarm.5 mph50%30.00 "HgN/A
5:00 pm79 °FWarm.7 mph48%30.01 "HgN/A
Weather by CustomWeather, © 2017

See weather overviewHow to use our weather pages